STARLINK-5245 (54168 NORAD) Tracking and Keplerian Element Data

This shows tracking and keplerian element data for the satellite.

Feedback or suggestion? Click here.




ElementValue
Catalog54168
NameSTARLINK-5245
Epoch Orbit384
Epoch Day325.25001157
Epoch Year2022
RAAN24.1178
Inclination53.2189
Eccentricity0.0003037
Argument of Perigee13.4348
Mean Anonmoly5.628
Mean Motion15.73176061
Decay Rate0.00029921
L11 54168U 22141M 22325.25001157 .00029921 00000+0 21704-3 0 9998
L22 54168 53.2189 24.1178 0003037 13.4348 5.6280 15.73176061 3846



Live tracking and technical data element details for STARLINK-5245 (NORAD 54168). STARLINK-5245 can be tracked NOW for your location showing map with azimuth and elevation plus other details from your city location.







IsCatalogInMostPopularTable: catalog: 54168, numindb: 4
Update: records affected: 1



GetName: 54168 STARLINK-5245

Hit Count: updated at: Mon, 28 Nov 2022 20:52:30 GMT